This is the latest recevied weather packets stored in our database for station/object HK4RAU-31. If no packets are shown the sender has not sent any weather packets the latest 10 day(s).
| Time | Temp. | Humidity | Pressure | Rain* | Wind** | Luminosity | Snow |
|---|---|---|---|---|---|---|---|
| 1777644949 | 13.33° C | 88% | 1017 hPa | 0 mm | - | - | - |
| 1777644766 | 13.33° C | 88% | 1017 hPa | 0 mm | - | - | - |
| 1777644584 | 13.33° C | 88% | 1017 hPa | 0 mm | - | - | - |
| 1777644395 | 13.33° C | 88% | 1017 hPa | 0 mm | - | - | - |
| 1777644213 | 13.33° C | 88% | 1017 hPa | 0 mm | - | - | - |
| 1777643630 | 13.33° C | 88% | 1017 hPa | 0 mm | - | - | - |
| 1777643443 | 13.33° C | 88% | 1017 hPa | 0 mm | - | - | - |
| 1777643256 | 13.33° C | 88% | 1017 hPa | 0 mm | - | - | - |
| 1777642883 | 13.33° C | 88% | 1017 hPa | 0 mm | - | - | - |
| 1777642692 | 13.33° C | 88% | 1017 hPa | 0 mm | - | - | - |
| 1777642505 | 13.33° C | 88% | 1018 hPa | 0 mm | - | - | - |
| 1777642318 | 13.33° C | 88% | 1018 hPa | 0 mm | - | - | - |
| 1777641938 | 13.33° C | 88% | 1018 hPa | 0 mm | - | - | - |
| 1777641756 | 15.56° C | 94% | 1018 hPa | 0 mm | - | - | - |
| 1777641563 | 11.11° C | 97% | 1018 hPa | 0 mm | - | - | - |
| 1777641376 | 15.56° C | 95% | 1018 hPa | 0 mm | - | - | - |
| 1777641195 | 11.11° C | 97% | 1018 hPa | 0 mm | - | - | - |
| 1777641008 | 11.11° C | 97% | 1018 hPa | 0 mm | - | - | - |
| 1777640822 | 11.11° C | 97% | 1018 hPa | 0 mm | - | - | - |
| 1777640634 | 11.11° C | 98% | 1018 hPa | 0 mm | - | - | - |
| 1777640038 | 11.11° C | 97% | 1018 hPa | 0 mm | - | - | - |
| 1777639446 | 11.11° C | 97% | 1018 hPa | 0 mm | - | - | - |
| 1777638861 | 10.56° C | 96% | 1018 hPa | 0 mm | - | - | - |
| 1777638273 | 10.56° C | 96% | 1018 hPa | 0 mm | - | - | - |
| 1777637683 | 11.11° C | 95% | 1018 hPa | 0 mm | - | - | - |
* Rain latest hour (hover to see other rain measurements)
** Current wind speed in m/s (hover to see current wind gust speed)